Location: Holbach
(51.5399°N, 10.6036°E)
Time: 10:49:34
(UTC+00:00)

ATLAS CENTAUR R/B - Pass Details

Date: 21 January 2021
Orbit: 471 x 674 km, 64.6° (Epoch: 24 February)

Event Time Altitude Azimuth Distance (km) Brightness Sun altitude
Rises 05:51:18 0° 201° (SSW) 2,527 4.7 -12.0°
Reaches altitude 10° 05:53:31 10° 193° (SSW) 1,640 3.8 -11.7°
Maximum altitude 05:56:55 39° 124° (SE) 725 2.6 -11.2°
Drops below altitude 10° 06:00:19 10° 54° (NE) 1,646 4.3 -10.7°
Sets 06:02:33 0° 47° (NE) 2,538 5.1 -10.4°
